Time,TemperatureF,DewpointF,PressureIn,WindDirection,WindDirectionDegrees,WindSpeedMPH,WindSpeedGustMPH,Humidity,HourlyPrecipIn,Conditions,Clouds,dailyrainin,SoftwareType,DateUTC
2013-05-04 00:01:00,39.7,18.5,30.30,East,91,0.0,0.0,42,0.00,,,0.00,Weather View 32 v70,2013-05-04 07:01:00,
2013-05-04 00:06:00,39.6,18.3,30.30,East,91,0.0,0.0,42,0.00,,,0.00,Weather View 32 v70,2013-05-04 07:06:00,
2013-05-04 00:11:00,39.4,18.2,30.30,East,91,0.0,0.0,42,0.00,,,0.00,Weather View 32 v70,2013-05-04 07:11:00,
2013-05-04 00:15:00,39.4,18.2,30.30,East,91,0.0,0.0,42,0.00,,,0.00,Weather View 32 v70,2013-05-04 07:15:00,
2013-05-04 00:17:00,39.2,18.0,30.30,East,91,0.0,0.0,42,0.00,,,0.00,Weather View 32 v70,2013-05-04 07:17:00,
2013-05-04 00:22:00,39.0,17.8,30.30,East,91,0.0,0.0,42,0.00,,,0.00,Weather View 32 v70,2013-05-04 07:22:00,
2013-05-04 00:27:00,38.8,17.7,30.30,East,91,0.0,0.0,42,0.00,,,0.00,Weather View 32 v70,2013-05-04 07:27:00,
2013-05-04 00:32:00,38.7,17.5,30.30,East,91,0.0,0.0,42,0.00,,,0.00,Weather View 32 v70,2013-05-04 07:32:00,
2013-05-04 00:37:00,38.5,17.4,30.30,East,91,0.0,0.0,42,0.00,,,0.00,Weather View 32 v70,2013-05-04 07:37:00,
2013-05-04 00:42:00,38.1,17.6,30.30,East,91,0.0,0.0,43,0.00,,,0.00,Weather View 32 v70,2013-05-04 07:42:00,
2013-05-04 00:47:00,37.8,17.8,30.30,East,91,0.0,0.0,44,0.00,,,0.00,Weather View 32 v70,2013-05-04 07:47:00,
2013-05-04 00:52:00,37.9,17.9,30.30,East,91,0.0,4.0,44,0.00,,,0.00,Weather View 32 v70,2013-05-04 07:52:00,
2013-05-04 00:57:00,37.9,17.9,30.30,East,91,0.0,4.0,44,0.00,,,0.00,Weather View 32 v70,2013-05-04 07:57:00,
2013-05-04 01:02:00,37.9,17.9,30.30,East,91,0.0,4.0,44,0.00,,,0.00,Weather View 32 v70,2013-05-04 08:02:00,
2013-05-04 01:07:00,37.8,17.8,30.30,East,91,0.0,4.0,44,0.00,,,0.00,Weather View 32 v70,2013-05-04 08:07:00,
2013-05-04 01:12:00,37.6,17.6,30.30,East,91,0.0,4.0,44,0.00,,,0.00,Weather View 32 v70,2013-05-04 08:12:00,
2013-05-04 01:17:00,37.4,17.5,30.30,East,91,0.0,4.0,44,0.00,,,0.00,Weather View 32 v70,2013-05-04 08:17:00,
2013-05-04 01:22:00,37.0,17.1,30.30,East,91,0.0,4.0,44,0.00,,,0.00,Weather View 32 v70,2013-05-04 08:22:00,
2013-05-04 01:27:00,36.9,17.5,30.30,East,91,0.0,4.0,45,0.00,,,0.00,Weather View 32 v70,2013-05-04 08:27:00,
2013-05-04 01:32:00,36.7,17.3,30.30,East,91,0.0,4.0,45,0.00,,,0.00,Weather View 32 v70,2013-05-04 08:32:00,
2013-05-04 01:37:00,36.5,17.2,30.27,East,91,0.0,4.0,45,0.00,,,0.00,Weather View 32 v70,2013-05-04 08:37:00,
2013-05-04 01:42:00,36.5,17.2,30.27,East,91,0.0,4.0,45,0.00,,,0.00,Weather View 32 v70,2013-05-04 08:42:00,
2013-05-04 01:47:00,36.3,17.0,30.27,East,91,0.0,4.0,45,0.00,,,0.00,Weather View 32 v70,2013-05-04 08:47:00,
2013-05-04 01:52:00,36.1,17.3,30.27,East,91,0.0,0.0,46,0.00,,,0.00,Weather View 32 v70,2013-05-04 08:52:00,
2013-05-04 01:57:00,36.1,16.8,30.27,East,91,0.0,0.0,45,0.00,,,0.00,Weather View 32 v70,2013-05-04 08:57:00,
2013-05-04 02:02:00,36.0,17.2,30.27,East,91,0.0,0.0,46,0.00,,,0.00,Weather View 32 v70,2013-05-04 09:02:00,
2013-05-04 02:07:00,35.8,17.0,30.27,East,91,0.0,0.0,46,0.00,,,0.00,Weather View 32 v70,2013-05-04 09:07:00,
2013-05-04 02:12:00,35.8,17.0,30.27,East,91,0.0,0.0,46,0.00,,,0.00,Weather View 32 v70,2013-05-04 09:12:00,
2013-05-04 02:17:00,35.8,17.0,30.27,East,91,0.0,0.0,46,0.00,,,0.00,Weather View 32 v70,2013-05-04 09:17:00,
2013-05-04 02:22:00,35.6,16.8,30.27,East,91,0.0,0.0,46,0.00,,,0.00,Weather View 32 v70,2013-05-04 09:22:00,
2013-05-04 02:27:00,35.4,17.2,30.27,East,91,0.0,0.0,47,0.00,,,0.00,Weather View 32 v70,2013-05-04 09:27:00,
2013-05-04 02:32:00,35.2,17.0,30.27,East,91,0.0,0.0,47,0.00,,,0.00,Weather View 32 v70,2013-05-04 09:32:00,
2013-05-04 02:37:00,34.9,16.7,30.27,East,91,0.0,0.0,47,0.00,,,0.00,Weather View 32 v70,2013-05-04 09:37:00,
2013-05-04 02:42:00,34.7,16.5,30.27,East,91,0.0,0.0,47,0.00,,,0.00,Weather View 32 v70,2013-05-04 09:42:00,
2013-05-04 02:47:00,34.7,17.0,30.27,East,91,0.0,0.0,48,0.00,,,0.00,Weather View 32 v70,2013-05-04 09:47:00,
2013-05-04 02:52:00,34.5,16.3,30.27,East,91,0.0,0.0,47,0.00,,,0.00,Weather View 32 v70,2013-05-04 09:52:00,
2013-05-04 02:57:00,34.5,16.8,30.27,East,91,0.0,0.0,48,0.00,,,0.00,Weather View 32 v70,2013-05-04 09:57:00,
2013-05-04 03:02:00,34.5,16.8,30.27,East,91,0.0,0.0,48,0.00,,,0.00,Weather View 32 v70,2013-05-04 10:02:00,
2013-05-04 03:07:00,34.3,16.7,30.27,East,91,0.0,0.0,48,0.00,,,0.00,Weather View 32 v70,2013-05-04 10:07:00,
2013-05-04 03:12:00,34.0,16.3,30.27,East,91,0.0,0.0,48,0.00,,,0.00,Weather View 32 v70,2013-05-04 10:12:00,
2013-05-04 03:17:00,34.0,16.3,30.27,East,91,0.0,0.0,48,0.00,,,0.00,Weather View 32 v70,2013-05-04 10:17:00,
2013-05-04 03:22:00,33.8,16.2,30.27,East,91,0.0,0.0,48,0.00,,,0.00,Weather View 32 v70,2013-05-04 10:22:00,
2013-05-04 03:27:00,33.8,16.6,30.27,East,91,0.0,0.0,49,0.00,,,0.00,Weather View 32 v70,2013-05-04 10:27:00,
2013-05-04 03:32:00,33.8,16.6,30.27,East,91,0.0,0.0,49,0.00,,,0.00,Weather View 32 v70,2013-05-04 10:32:00,
2013-05-04 03:37:00,33.8,16.6,30.27,East,91,0.0,0.0,49,0.00,,,0.00,Weather View 32 v70,2013-05-04 10:37:00,
2013-05-04 03:42:00,33.6,16.5,30.27,East,91,0.0,0.0,49,0.00,,,0.00,Weather View 32 v70,2013-05-04 10:42:00,
2013-05-04 03:47:00,33.6,16.5,30.27,East,91,0.0,0.0,49,0.00,,,0.00,Weather View 32 v70,2013-05-04 10:47:00,
2013-05-04 03:52:00,33.4,16.3,30.27,East,91,0.0,0.0,49,0.00,,,0.00,Weather View 32 v70,2013-05-04 10:52:00,
2013-05-04 03:57:00,33.4,16.3,30.27,East,91,0.0,0.0,49,0.00,,,0.00,Weather View 32 v70,2013-05-04 10:57:00,
2013-05-04 04:02:00,33.3,16.1,30.27,East,91,0.0,0.0,49,0.00,,,0.00,Weather View 32 v70,2013-05-04 11:02:00,
2013-05-04 04:07:00,33.3,16.1,30.27,East,91,0.0,0.0,49,0.00,,,0.00,Weather View 32 v70,2013-05-04 11:07:00,
2013-05-04 04:12:00,33.1,16.4,30.27,East,91,0.0,0.0,50,0.00,,,0.00,Weather View 32 v70,2013-05-04 11:12:00,
2013-05-04 04:17:00,32.9,16.3,30.27,East,91,0.0,0.0,50,0.00,,,0.00,Weather View 32 v70,2013-05-04 11:17:00,
2013-05-04 04:22:00,32.9,16.3,30.27,East,91,0.0,0.0,50,0.00,,,0.00,Weather View 32 v70,2013-05-04 11:22:00,
2013-05-04 04:27:00,32.7,16.1,30.27,East,91,0.0,0.0,50,0.00,,,0.00,Weather View 32 v70,2013-05-04 11:27:00,
2013-05-04 04:32:00,32.7,16.1,30.27,East,91,0.0,0.0,50,0.00,,,0.00,Weather View 32 v70,2013-05-04 11:32:00,
2013-05-04 04:37:00,32.5,15.9,30.24,East,91,0.0,0.0,50,0.00,,,0.00,Weather View 32 v70,2013-05-04 11:37:00,
2013-05-04 04:42:00,32.4,16.2,30.24,East,91,0.0,0.0,51,0.00,,,0.00,Weather View 32 v70,2013-05-04 11:42:00,
2013-05-04 04:47:00,32.2,15.6,30.24,East,91,0.0,0.0,50,0.00,,,0.00,Weather View 32 v70,2013-05-04 11:47:00,
2013-05-04 04:52:00,32.2,15.6,30.24,East,91,0.0,0.0,50,0.00,,,0.00,Weather View 32 v70,2013-05-04 11:52:00,
2013-05-04 04:57:00,32.0,15.9,30.24,East,91,0.0,0.0,51,0.00,,,0.00,Weather View 32 v70,2013-05-04 11:57:00,
2013-05-04 05:02:00,31.8,15.7,30.24,East,91,0.0,0.0,51,0.00,,,0.00,Weather View 32 v70,2013-05-04 12:02:00,
2013-05-04 05:07:00,31.8,15.7,30.24,East,91,0.0,0.0,51,0.00,,,0.00,Weather View 32 v70,2013-05-04 12:07:00,
2013-05-04 05:12:00,31.6,15.6,30.24,East,91,0.0,0.0,51,0.00,,,0.00,Weather View 32 v70,2013-05-04 12:12:00,
2013-05-04 05:17:00,31.5,15.4,30.24,East,91,0.0,0.0,51,0.00,,,0.00,Weather View 32 v70,2013-05-04 12:17:00,
2013-05-04 05:22:00,31.3,15.2,30.24,East,91,0.0,0.0,51,0.00,,,0.00,Weather View 32 v70,2013-05-04 12:22:00,
2013-05-04 05:27:00,31.1,15.1,30.24,East,91,0.0,0.0,51,0.00,,,0.00,Weather View 32 v70,2013-05-04 12:27:00,
2013-05-04 05:32:00,31.1,15.1,30.24,East,91,0.0,0.0,51,0.00,,,0.00,Weather View 32 v70,2013-05-04 12:32:00,
2013-05-04 05:37:00,30.9,14.9,30.24,East,91,0.0,0.0,51,0.00,,,0.00,Weather View 32 v70,2013-05-04 12:37:00,
2013-05-04 05:42:00,30.9,14.9,30.24,East,91,0.0,0.0,51,0.00,,,0.00,Weather View 32 v70,2013-05-04 12:42:00,
2013-05-04 05:47:00,30.6,14.6,30.24,East,91,0.0,0.0,51,0.00,,,0.00,Weather View 32 v70,2013-05-04 12:47:00,
2013-05-04 05:52:00,30.6,14.6,30.27,East,91,0.0,0.0,51,0.00,,,0.00,Weather View 32 v70,2013-05-04 12:52:00,
2013-05-04 05:57:00,30.4,14.4,30.27,East,91,0.0,0.0,51,0.00,,,0.00,Weather View 32 v70,2013-05-04 12:57:00,
2013-05-04 06:03:00,30.4,14.8,30.27,East,91,0.0,0.0,52,0.00,,,0.00,Weather View 32 v70,2013-05-04 13:03:00,
2013-05-04 06:08:00,30.4,15.3,30.27,East,91,0.0,0.0,53,0.00,,,0.00,Weather View 32 v70,2013-05-04 13:08:00,
2013-05-04 06:13:00,30.4,15.3,30.27,East,91,0.0,0.0,53,0.00,,,0.00,Weather View 32 v70,2013-05-04 13:13:00,
2013-05-04 06:15:00,30.6,15.0,30.27,East,91,0.0,0.0,52,0.00,,,0.00,Weather View 32 v70,2013-05-04 13:15:00,
2013-05-04 06:20:00,31.1,15.5,30.27,East,91,0.0,0.0,52,0.00,,,0.00,Weather View 32 v70,2013-05-04 13:20:00,
2013-05-04 06:25:00,31.6,15.6,30.27,East,91,0.0,0.0,51,0.00,,,0.00,Weather View 32 v70,2013-05-04 13:25:00,
2013-05-04 06:30:00,32.2,16.1,30.27,East,91,0.0,0.0,51,0.00,,,0.00,Weather View 32 v70,2013-05-04 13:30:00,
2013-05-04 06:35:00,32.7,16.6,30.27,East,91,0.0,0.0,51,0.00,,,0.00,Weather View 32 v70,2013-05-04 13:35:00,
2013-05-04 06:40:00,33.4,17.2,30.27,East,91,0.0,0.0,51,0.00,,,0.00,Weather View 32 v70,2013-05-04 13:40:00,
2013-05-04 06:45:00,34.2,17.4,30.27,East,91,0.0,0.0,50,0.00,,,0.00,Weather View 32 v70,2013-05-04 13:45:00,
2013-05-04 06:50:00,34.9,18.1,30.27,East,91,0.0,0.0,50,0.00,,,0.00,Weather View 32 v70,2013-05-04 13:50:00,
2013-05-04 06:55:00,35.6,18.8,30.27,East,91,0.0,0.0,50,0.00,,,0.00,Weather View 32 v70,2013-05-04 13:55:00,
2013-05-04 07:00:00,36.7,19.3,30.27,East,91,0.0,0.0,49,0.00,,,0.00,Weather View 32 v70,2013-05-04 14:00:00,
2013-05-04 07:05:00,37.4,19.5,30.24,East,91,0.0,0.0,48,0.00,,,0.00,Weather View 32 v70,2013-05-04 14:05:00,
2013-05-04 07:10:00,38.1,20.1,30.24,East,92,0.0,0.0,48,0.00,,,0.00,Weather View 32 v70,2013-05-04 14:10:00,
2013-05-04 07:15:00,39.4,21.3,30.24,East,91,0.0,0.0,48,0.00,,,0.00,Weather View 32 v70,2013-05-04 14:15:00,
2013-05-04 07:20:00,41.2,22.5,30.24,East,91,0.0,0.0,47,0.00,,,0.00,Weather View 32 v70,2013-05-04 14:20:00,
2013-05-04 07:25:00,42.6,23.3,30.24,East,91,0.0,0.0,46,0.00,,,0.00,Weather View 32 v70,2013-05-04 14:25:00,
2013-05-04 07:30:00,44.2,24.2,30.24,East,91,3.0,4.0,45,0.00,,,0.00,Weather View 32 v70,2013-05-04 14:30:00,
2013-05-04 07:35:00,45.7,24.4,30.24,NE,46,3.0,5.0,43,0.00,,,0.00,Weather View 32 v70,2013-05-04 14:35:00,
2013-05-04 07:40:00,47.1,25.2,30.24,North,4,0.0,5.0,42,0.00,,,0.00,Weather View 32 v70,2013-05-04 14:40:00,
2013-05-04 07:45:00,48.0,25.4,30.24,NNE,24,0.0,5.0,41,0.00,,,0.00,Weather View 32 v70,2013-05-04 14:45:00,
2013-05-04 07:50:00,49.3,25.9,30.24,East,91,4.0,5.0,40,0.00,,,0.00,Weather View 32 v70,2013-05-04 14:50:00,
2013-05-04 07:55:00,50.2,26.1,30.24,ENE,71,3.0,6.0,39,0.00,,,0.00,Weather View 32 v70,2013-05-04 14:55:00,
2013-05-04 08:00:00,51.3,26.5,30.24,ENE,76,5.0,8.0,38,0.00,,,0.00,Weather View 32 v70,2013-05-04 15:00:00,
2013-05-04 08:05:00,51.8,27.0,30.24,East,89,6.0,9.0,38,0.00,,,0.00,Weather View 32 v70,2013-05-04 15:05:00,
2013-05-04 08:10:00,52.3,27.4,30.24,East,81,5.0,9.0,38,0.00,,,0.00,Weather View 32 v70,2013-05-04 15:10:00,
2013-05-04 08:15:00,52.9,27.3,30.24,ENE,74,6.0,9.0,37,0.00,,,0.00,Weather View 32 v70,2013-05-04 15:15:00,
2013-05-04 08:20:00,53.2,27.6,30.24,ENE,57,5.0,9.0,37,0.00,,,0.00,Weather View 32 v70,2013-05-04 15:20:00,
2013-05-04 08:25:00,53.8,28.1,30.24,ENE,78,5.0,9.0,37,0.00,,,0.00,Weather View 32 v70,2013-05-04 15:25:00,
2013-05-04 08:30:00,54.1,28.4,30.24,NE,39,4.0,9.0,37,0.00,,,0.00,Weather View 32 v70,2013-05-04 15:30:00,
2013-05-04 08:35:00,54.7,28.9,30.24,ENE,65,3.0,9.0,37,0.00,,,0.00,Weather View 32 v70,2013-05-04 15:35:00,
2013-05-04 08:40:00,55.0,29.2,30.24,ENE,77,7.0,9.0,37,0.00,,,0.00,Weather View 32 v70,2013-05-04 15:40:00,
2013-05-04 08:45:00,55.2,29.3,30.24,ENE,66,3.0,9.0,37,0.00,,,0.00,Weather View 32 v70,2013-05-04 15:45:00,
2013-05-04 08:50:00,55.9,29.3,30.24,ENE,65,4.0,9.0,36,0.00,,,0.00,Weather View 32 v70,2013-05-04 15:50:00,
2013-05-04 08:55:00,56.7,30.0,30.24,ENE,61,4.0,9.0,36,0.00,,,0.00,Weather View 32 v70,2013-05-04 15:55:00,
2013-05-04 09:00:00,57.2,30.4,30.24,NE,48,5.0,9.0,36,0.00,,,0.00,Weather View 32 v70,2013-05-04 16:00:00,
2013-05-04 09:05:00,57.2,30.4,30.24,ENE,65,5.0,9.0,36,0.00,,,0.00,Weather View 32 v70,2013-05-04 16:05:00,
2013-05-04 09:10:00,57.2,30.4,30.24,ENE,63,3.0,9.0,36,0.00,,,0.00,Weather View 32 v70,2013-05-04 16:10:00,
2013-05-04 09:15:00,57.6,30.8,30.24,ESE,118,4.0,9.0,36,0.00,,,0.00,Weather View 32 v70,2013-05-04 16:15:00,
2013-05-04 09:20:00,57.6,30.8,30.24,ENE,60,9.0,11.0,36,0.00,,,0.00,Weather View 32 v70,2013-05-04 16:20:00,
2013-05-04 09:25:00,57.6,30.8,30.24,ENE,65,6.0,11.0,36,0.00,,,0.00,Weather View 32 v70,2013-05-04 16:25:00,
2013-05-04 09:30:00,57.9,31.1,30.24,ENE,58,6.0,11.0,36,0.00,,,0.00,Weather View 32 v70,2013-05-04 16:30:00,
2013-05-04 09:35:00,57.9,31.1,30.24,NE,56,6.0,11.0,36,0.00,,,0.00,Weather View 32 v70,2013-05-04 16:35:00,
2013-05-04 09:40:00,58.1,31.2,30.24,NE,56,8.0,11.0,36,0.00,,,0.00,Weather View 32 v70,2013-05-04 16:40:00,
2013-05-04 09:45:00,58.8,31.9,30.24,ENE,58,4.0,11.0,36,0.00,,,0.00,Weather View 32 v70,2013-05-04 16:45:00,
2013-05-04 09:50:00,59.4,31.6,30.21,ENE,68,5.0,11.0,35,0.00,,,0.00,Weather View 32 v70,2013-05-04 16:50:00,
2013-05-04 09:55:00,60.1,32.3,30.21,NE,38,6.0,11.0,35,0.00,,,0.00,Weather View 32 v70,2013-05-04 16:55:00,
2013-05-04 10:00:00,60.8,32.9,30.21,NE,53,6.0,11.0,35,0.00,,,0.00,Weather View 32 v70,2013-05-04 17:00:00,
2013-05-04 10:05:00,61.7,33.7,30.21,NE,41,3.0,11.0,35,0.00,,,0.00,Weather View 32 v70,2013-05-04 17:05:00,
2013-05-04 10:10:00,62.1,34.0,30.21,East,91,11.0,12.0,35,0.00,,,0.00,Weather View 32 v70,2013-05-04 17:10:00,
2013-05-04 10:15:00,61.7,33.7,30.21,ENE,61,8.0,12.0,35,0.00,,,0.00,Weather View 32 v70,2013-05-04 17:15:00,
2013-05-04 10:20:00,62.2,34.2,30.21,ENE,68,6.0,12.0,35,0.00,,,0.00,Weather View 32 v70,2013-05-04 17:20:00,
2013-05-04 10:25:00,62.6,33.8,30.21,East,93,8.0,12.0,34,0.00,,,0.00,Weather View 32 v70,2013-05-04 17:25:00,
2013-05-04 10:30:00,62.6,33.8,30.21,SSE,153,8.0,12.0,34,0.00,,,0.00,Weather View 32 v70,2013-05-04 17:30:00,
2013-05-04 10:35:00,63.7,34.7,30.21,NNE,27,6.0,12.0,34,0.00,,,0.00,Weather View 32 v70,2013-05-04 17:35:00,
2013-05-04 10:41:00,63.0,34.1,30.21,ENE,70,11.0,12.0,34,0.00,,,0.00,Weather View 32 v70,2013-05-04 17:41:00,
2013-05-04 10:46:00,62.2,33.5,30.21,SE,133,9.0,15.0,34,0.00,,,0.00,Weather View 32 v70,2013-05-04 17:46:00,
2013-05-04 10:51:00,63.3,34.4,30.21,East,80,8.0,17.0,34,0.00,,,0.00,Weather View 32 v70,2013-05-04 17:51:00,
2013-05-04 10:56:00,64.2,35.2,30.21,ENE,73,9.0,17.0,34,0.00,,,0.00,Weather View 32 v70,2013-05-04 17:56:00,
2013-05-04 11:01:00,64.2,35.2,30.21,SE,127,14.0,17.0,34,0.00,,,0.00,Weather View 32 v70,2013-05-04 18:01:00,
2013-05-04 11:06:00,63.9,34.9,30.21,NE,43,11.0,17.0,34,0.00,,,0.00,Weather View 32 v70,2013-05-04 18:06:00,
2013-05-04 11:11:00,64.2,35.2,30.21,SE,129,9.0,17.0,34,0.00,,,0.00,Weather View 32 v70,2013-05-04 18:11:00,
2013-05-04 11:16:00,64.6,34.8,30.21,East,87,8.0,17.0,33,0.00,,,0.00,Weather View 32 v70,2013-05-04 18:16:00,
2013-05-04 11:21:00,64.4,34.6,30.18,SSE,160,5.0,17.0,33,0.00,,,0.00,Weather View 32 v70,2013-05-04 18:21:00,
2013-05-04 11:26:00,64.4,34.6,30.18,SE,127,15.0,19.0,33,0.00,,,0.00,Weather View 32 v70,2013-05-04 18:26:00,
2013-05-04 11:31:00,64.6,34.8,30.18,ESE,118,7.0,19.0,33,0.00,,,0.00,Weather View 32 v70,2013-05-04 18:31:00,
2013-05-04 11:36:00,65.3,35.4,30.18,East,79,8.0,23.0,33,0.00,,,0.00,Weather View 32 v70,2013-05-04 18:36:00,
2013-05-04 11:41:00,65.3,35.4,30.18,ESE,114,5.0,23.0,33,0.00,,,0.00,Weather View 32 v70,2013-05-04 18:41:00,
2013-05-04 11:46:00,65.1,35.2,30.18,ENE,68,13.0,23.0,33,0.00,,,0.00,Weather View 32 v70,2013-05-04 18:46:00,
2013-05-04 11:51:00,65.3,35.4,30.18,ESE,102,15.0,23.0,33,0.00,,,0.00,Weather View 32 v70,2013-05-04 18:51:00,
2013-05-04 11:56:00,65.7,35.7,30.18,NE,50,11.0,23.0,33,0.00,,,0.00,Weather View 32 v70,2013-05-04 18:56:00,
2013-05-04 12:01:00,65.5,35.5,30.18,ESE,111,11.0,23.0,33,0.00,,,0.00,Weather View 32 v70,2013-05-04 19:01:00,
2013-05-04 12:06:00,65.1,35.2,30.18,ESE,110,9.0,23.0,33,0.00,,,0.00,Weather View 32 v70,2013-05-04 19:06:00,
2013-05-04 12:11:00,64.8,34.9,30.18,ESE,115,8.0,23.0,33,0.00,,,0.00,Weather View 32 v70,2013-05-04 19:11:00,
2013-05-04 12:16:00,64.4,34.6,30.18,East,101,8.0,23.0,33,0.00,,,0.00,Weather View 32 v70,2013-05-04 19:16:00,
2013-05-04 12:21:00,64.8,34.9,30.18,East,94,5.0,23.0,33,0.00,,,0.00,Weather View 32 v70,2013-05-04 19:21:00,
2013-05-04 12:26:00,65.3,35.4,30.18,ESE,116,11.0,23.0,33,0.00,,,0.00,Weather View 32 v70,2013-05-04 19:26:00,
2013-05-04 12:31:00,65.5,35.5,30.18,ESE,121,11.0,23.0,33,0.00,,,0.00,Weather View 32 v70,2013-05-04 19:31:00,
2013-05-04 12:36:00,64.9,35.1,30.18,ESE,107,11.0,23.0,33,0.00,,,0.00,Weather View 32 v70,2013-05-04 19:36:00,
2013-05-04 12:41:00,64.8,34.9,30.18,ENE,78,15.0,23.0,33,0.00,,,0.00,Weather View 32 v70,2013-05-04 19:41:00,
2013-05-04 12:46:00,64.0,35.0,30.18,East,89,10.0,23.0,34,0.00,,,0.00,Weather View 32 v70,2013-05-04 19:46:00,
2013-05-04 12:51:00,64.9,35.1,30.18,ENE,78,15.0,23.0,33,0.00,,,0.00,Weather View 32 v70,2013-05-04 19:51:00,
2013-05-04 12:56:00,64.9,35.1,30.18,ENE,68,11.0,23.0,33,0.00,,,0.00,Weather View 32 v70,2013-05-04 19:56:00,
2013-05-04 13:01:00,65.3,35.4,30.18,SW,222,12.0,23.0,33,0.00,,,0.00,Weather View 32 v70,2013-05-04 20:01:00,
2013-05-04 13:06:00,66.4,36.3,30.15,ESE,104,10.0,23.0,33,0.00,,,0.00,Weather View 32 v70,2013-05-04 20:06:00,
2013-05-04 13:11:00,66.7,36.7,30.15,ENE,72,16.0,23.0,33,0.00,,,0.00,Weather View 32 v70,2013-05-04 20:11:00,
2013-05-04 13:16:00,66.6,36.5,30.15,NE,41,9.0,23.0,33,0.00,,,0.00,Weather View 32 v70,2013-05-04 20:16:00,
2013-05-04 13:21:00,66.6,36.5,30.15,SE,141,13.0,23.0,33,0.00,,,0.00,Weather View 32 v70,2013-05-04 20:21:00,
2013-05-04 13:26:00,66.6,36.5,30.15,SW,222,14.0,23.0,33,0.00,,,0.00,Weather View 32 v70,2013-05-04 20:26:00,
2013-05-04 13:31:00,66.6,36.5,30.15,ESE,105,13.0,23.0,33,0.00,,,0.00,Weather View 32 v70,2013-05-04 20:31:00,
2013-05-04 13:36:00,66.7,36.7,30.15,NE,56,14.0,23.0,33,0.00,,,0.00,Weather View 32 v70,2013-05-04 20:36:00,
2013-05-04 13:41:00,66.7,36.7,30.15,SE,137,10.0,23.0,33,0.00,,,0.00,Weather View 32 v70,2013-05-04 20:41:00,
2013-05-04 13:46:00,67.3,37.1,30.15,ESE,108,11.0,23.0,33,0.00,,,0.00,Weather View 32 v70,2013-05-04 20:46:00,
2013-05-04 13:51:00,67.3,37.1,30.15,East,92,10.0,23.0,33,0.00,,,0.00,Weather View 32 v70,2013-05-04 20:51:00,
2013-05-04 13:56:00,66.7,36.7,30.15,SE,146,11.0,23.0,33,0.00,,,0.00,Weather View 32 v70,2013-05-04 20:56:00,
2013-05-04 14:01:00,66.7,36.7,30.15,SW,222,11.0,23.0,33,0.00,,,0.00,Weather View 32 v70,2013-05-04 21:01:00,
2013-05-04 14:06:00,67.5,37.3,30.15,SW,222,15.0,23.0,33,0.00,,,0.00,Weather View 32 v70,2013-05-04 21:06:00,
2013-05-04 14:11:00,67.5,37.3,30.15,ESE,115,12.0,23.0,33,0.00,,,0.00,Weather View 32 v70,2013-05-04 21:11:00,
2013-05-04 14:16:00,67.5,37.3,30.15,SE,132,15.0,23.0,33,0.00,,,0.00,Weather View 32 v70,2013-05-04 21:16:00,
2013-05-04 14:21:00,66.7,36.7,30.15,SSE,160,8.0,24.0,33,0.00,,,0.00,Weather View 32 v70,2013-05-04 21:21:00,
2013-05-04 14:26:00,66.7,36.7,30.15,ESE,119,6.0,24.0,33,0.00,,,0.00,Weather View 32 v70,2013-05-04 21:26:00,
2013-05-04 14:32:00,67.1,37.0,30.15,SW,222,8.0,24.0,33,0.00,,,0.00,Weather View 32 v70,2013-05-04 21:32:00,
2013-05-04 14:37:00,67.5,37.3,30.12,SSE,151,12.0,24.0,33,0.00,,,0.00,Weather View 32 v70,2013-05-04 21:37:00,
2013-05-04 14:42:00,67.1,37.0,30.12,SW,222,8.0,24.0,33,0.00,,,0.00,Weather View 32 v70,2013-05-04 21:42:00,
2013-05-04 14:47:00,67.5,37.3,30.12,SW,221,9.0,24.0,33,0.00,,,0.00,Weather View 32 v70,2013-05-04 21:47:00,
2013-05-04 14:52:00,68.0,37.8,30.12,SW,221,4.0,24.0,33,0.00,,,0.00,Weather View 32 v70,2013-05-04 21:52:00,
2013-05-04 14:57:00,68.2,37.9,30.12,SW,222,9.0,24.0,33,0.00,,,0.00,Weather View 32 v70,2013-05-04 21:57:00,
2013-05-04 15:02:00,67.3,37.1,30.12,SW,221,6.0,24.0,33,0.00,,,0.00,Weather View 32 v70,2013-05-04 22:02:00,
2013-05-04 15:07:00,66.7,36.7,30.12,SW,221,12.0,24.0,33,0.00,,,0.00,Weather View 32 v70,2013-05-04 22:07:00,
2013-05-04 15:12:00,66.9,36.8,30.12,East,94,6.0,24.0,33,0.00,,,0.00,Weather View 32 v70,2013-05-04 22:12:00,
2013-05-04 15:17:00,67.5,37.3,30.12,ESE,115,8.0,24.0,33,0.00,,,0.00,Weather View 32 v70,2013-05-04 22:17:00,
2013-05-04 15:22:00,67.8,37.6,30.12,SW,221,4.0,24.0,33,0.00,,,0.00,Weather View 32 v70,2013-05-04 22:22:00,
2013-05-04 15:27:00,68.4,38.1,30.12,SW,222,9.0,24.0,33,0.00,,,0.00,Weather View 32 v70,2013-05-04 22:27:00,
2013-05-04 15:32:00,68.5,38.2,30.12,SW,221,12.0,20.0,33,0.00,,,0.00,Weather View 32 v70,2013-05-04 22:32:00,
2013-05-04 15:37:00,67.3,37.1,30.12,SW,222,10.0,20.0,33,0.00,,,0.00,Weather View 32 v70,2013-05-04 22:37:00,
2013-05-04 15:42:00,66.4,36.3,30.12,ESE,111,6.0,20.0,33,0.00,,,0.00,Weather View 32 v70,2013-05-04 22:42:00,
2013-05-04 15:47:00,66.2,36.2,30.12,SW,222,4.0,20.0,33,0.00,,,0.00,Weather View 32 v70,2013-05-04 22:47:00,
2013-05-04 15:52:00,66.7,36.7,30.12,SSE,157,13.0,20.0,33,0.00,,,0.00,Weather View 32 v70,2013-05-04 22:52:00,
2013-05-04 15:57:00,66.7,36.7,30.12,East,98,8.0,23.0,33,0.00,,,0.00,Weather View 32 v70,2013-05-04 22:57:00,
2013-05-04 16:02:00,67.1,37.0,30.12,SSE,160,11.0,23.0,33,0.00,,,0.00,Weather View 32 v70,2013-05-04 23:02:00,
2013-05-04 16:07:00,68.0,37.8,30.09,SW,221,11.0,23.0,33,0.00,,,0.00,Weather View 32 v70,2013-05-04 23:07:00,
2013-05-04 16:12:00,73.4,40.8,30.09,SW,221,9.0,23.0,31,0.00,,,0.00,Weather View 32 v70,2013-05-04 23:12:00,
2013-05-04 16:17:00,72.3,40.7,30.09,ESE,121,10.0,23.0,32,0.00,,,0.00,Weather View 32 v70,2013-05-04 23:17:00,
2013-05-04 16:22:00,69.3,38.9,30.09,SE,126,8.0,23.0,33,0.00,,,0.00,Weather View 32 v70,2013-05-04 23:22:00,
2013-05-04 16:27:00,67.8,37.6,30.09,SE,134,15.0,23.0,33,0.00,,,0.00,Weather View 32 v70,2013-05-04 23:27:00,
2013-05-04 16:32:00,67.3,37.1,30.09,SSE,160,9.0,23.0,33,0.00,,,0.00,Weather View 32 v70,2013-05-04 23:32:00,
2013-05-04 16:37:00,67.3,37.1,30.09,ESE,117,15.0,23.0,33,0.00,,,0.00,Weather View 32 v70,2013-05-04 23:37:00,
2013-05-04 16:43:00,66.7,36.7,30.09,SE,125,11.0,23.0,33,0.00,,,0.00,Weather View 32 v70,2013-05-04 23:43:00,
2013-05-04 16:48:00,67.8,37.6,30.09,ESE,116,11.0,23.0,33,0.00,,,0.00,Weather View 32 v70,2013-05-04 23:48:00,
2013-05-04 16:53:00,71.8,40.3,30.09,East,79,12.0,23.0,32,0.00,,,0.00,Weather View 32 v70,2013-05-04 23:53:00,
2013-05-04 16:58:00,72.9,41.2,30.09,SSE,159,8.0,19.0,32,0.00,,,0.00,Weather View 32 v70,2013-05-04 23:58:00,
2013-05-04 17:03:00,72.0,40.4,30.09,East,93,8.0,18.0,32,0.00,,,0.00,Weather View 32 v70,2013-05-05 00:03:00,
2013-05-04 17:08:00,72.5,40.9,30.09,SSE,159,6.0,18.0,32,0.00,,,0.00,Weather View 32 v70,2013-05-05 00:08:00,
2013-05-04 17:13:00,72.7,41.0,30.09,ESE,113,13.0,18.0,32,0.00,,,0.00,Weather View 32 v70,2013-05-05 00:13:00,
2013-05-04 17:18:00,73.9,41.3,30.09,East,85,8.0,18.0,31,0.00,,,0.00,Weather View 32 v70,2013-05-05 00:18:00,
2013-05-04 17:23:00,76.5,43.5,30.09,SE,134,15.0,18.0,31,0.00,,,0.00,Weather View 32 v70,2013-05-05 00:23:00,
2013-05-04 17:28:00,76.1,43.2,30.09,SSE,149,11.0,18.0,31,0.00,,,0.00,Weather View 32 v70,2013-05-05 00:28:00,
2013-05-04 17:30:00,75.6,42.7,30.09,SSE,153,9.0,18.0,31,0.00,,,0.00,Weather View 32 v70,2013-05-05 00:30:00,
2013-05-04 17:33:00,74.7,41.9,30.09,SSE,160,5.0,18.0,31,0.00,,,0.00,Weather View 32 v70,2013-05-05 00:33:00,
2013-05-04 17:38:00,73.4,40.8,30.09,SE,145,11.0,18.0,31,0.00,,,0.00,Weather View 32 v70,2013-05-05 00:38:00,
2013-05-04 17:43:00,75.7,42.9,30.09,East,96,15.0,18.0,31,0.00,,,0.00,Weather View 32 v70,2013-05-05 00:43:00,
2013-05-04 17:48:00,75.4,42.6,30.09,ENE,72,9.0,18.0,31,0.00,,,0.00,Weather View 32 v70,2013-05-05 00:48:00,
2013-05-04 17:53:00,76.1,43.2,30.09,ESE,115,9.0,18.0,31,0.00,,,0.00,Weather View 32 v70,2013-05-05 00:53:00,
2013-05-04 17:58:00,75.0,42.2,30.09,SE,135,9.0,18.0,31,0.00,,,0.00,Weather View 32 v70,2013-05-05 00:58:00,
2013-05-04 18:03:00,74.8,42.1,30.09,SSE,157,6.0,18.0,31,0.00,,,0.00,Weather View 32 v70,2013-05-05 01:03:00,
2013-05-04 18:08:00,74.5,41.8,30.09,SE,133,11.0,20.0,31,0.00,,,0.00,Weather View 32 v70,2013-05-05 01:08:00,
2013-05-04 18:13:00,74.3,41.6,30.09,SE,138,6.0,20.0,31,0.00,,,0.00,Weather View 32 v70,2013-05-05 01:13:00,
2013-05-04 18:18:00,72.0,40.4,30.09,SW,219,14.0,20.0,32,0.00,,,0.00,Weather View 32 v70,2013-05-05 01:18:00,
2013-05-04 18:23:00,72.7,41.0,30.09,SW,222,12.0,20.0,32,0.00,,,0.00,Weather View 32 v70,2013-05-05 01:23:00,
2013-05-04 18:28:00,71.4,39.9,30.09,SE,135,6.0,20.0,32,0.00,,,0.00,Weather View 32 v70,2013-05-05 01:28:00,
2013-05-04 18:30:00,70.5,39.2,30.09,SE,129,11.0,20.0,32,0.00,,,0.00,Weather View 32 v70,2013-05-05 01:30:00,
2013-05-04 18:33:00,68.7,38.4,30.09,SSE,160,3.0,20.0,33,0.00,,,0.00,Weather View 32 v70,2013-05-05 01:33:00,
2013-05-04 18:48:00,65.7,35.7,30.06,SW,221,7.0,20.0,33,0.00,,,0.00,Weather View 32 v70,2013-05-05 01:48:00,
2013-05-04 18:53:00,65.5,35.5,30.06,SW,221,8.0,20.0,33,0.00,,,0.00,Weather View 32 v70,2013-05-05 01:53:00,
2013-05-04 18:58:00,65.3,35.4,30.06,SW,221,13.0,24.0,33,0.00,,,0.00,Weather View 32 v70,2013-05-05 01:58:00,
2013-05-04 19:03:00,64.9,35.1,30.06,SW,221,9.0,24.0,33,0.00,,,0.00,Weather View 32 v70,2013-05-05 02:03:00,
2013-05-04 19:08:00,64.8,34.9,30.06,SE,126,11.0,24.0,33,0.00,,,0.00,Weather View 32 v70,2013-05-05 02:08:00,
2013-05-04 19:13:00,64.6,34.8,30.06,SE,135,13.0,24.0,33,0.00,,,0.00,Weather View 32 v70,2013-05-05 02:13:00,
2013-05-04 19:18:00,64.4,34.6,30.06,SE,125,9.0,24.0,33,0.00,,,0.00,Weather View 32 v70,2013-05-05 02:18:00,
2013-05-04 19:23:00,64.0,35.0,30.06,SE,135,15.0,24.0,34,0.00,,,0.00,Weather View 32 v70,2013-05-05 02:23:00,
2013-05-04 19:28:00,63.9,34.9,30.06,ESE,111,10.0,24.0,34,0.00,,,0.00,Weather View 32 v70,2013-05-05 02:28:00,
2013-05-04 19:33:00,63.5,34.6,30.06,SE,133,9.0,24.0,34,0.00,,,0.00,Weather View 32 v70,2013-05-05 02:33:00,
2013-05-04 19:38:00,63.3,34.4,30.06,SE,127,3.0,24.0,34,0.00,,,0.00,Weather View 32 v70,2013-05-05 02:38:00,
2013-05-04 19:43:00,63.1,34.2,30.06,SE,135,13.0,24.0,34,0.00,,,0.00,Weather View 32 v70,2013-05-05 02:43:00,
2013-05-04 19:48:00,62.6,33.8,30.06,East,96,6.0,24.0,34,0.00,,,0.00,Weather View 32 v70,2013-05-05 02:48:00,
2013-05-04 19:53:00,62.4,33.6,30.06,East,81,8.0,24.0,34,0.00,,,0.00,Weather View 32 v70,2013-05-05 02:53:00,
2013-05-04 19:58:00,62.1,33.3,30.06,ESE,108,11.0,19.0,34,0.00,,,0.00,Weather View 32 v70,2013-05-05 02:58:00,
2013-05-04 20:03:00,61.9,33.1,30.06,ENE,78,3.0,19.0,34,0.00,,,0.00,Weather View 32 v70,2013-05-05 03:03:00,
2013-05-04 20:08:00,61.5,32.8,30.09,ESE,109,13.0,19.0,34,0.00,,,0.00,Weather View 32 v70,2013-05-05 03:08:00,
2013-05-04 20:13:00,61.3,32.7,30.09,East,101,5.0,19.0,34,0.00,,,0.00,Weather View 32 v70,2013-05-05 03:13:00,
2013-05-04 20:18:00,61.0,32.4,30.09,ESE,112,6.0,19.0,34,0.00,,,0.00,Weather View 32 v70,2013-05-05 03:18:00,
2013-05-04 20:23:00,60.8,32.2,30.09,SE,138,4.0,19.0,34,0.00,,,0.00,Weather View 32 v70,2013-05-05 03:23:00,
2013-05-04 20:29:00,60.6,32.8,30.09,ESE,119,8.0,19.0,35,0.00,,,0.00,Weather View 32 v70,2013-05-05 03:29:00,
2013-05-04 20:34:00,60.4,32.6,30.09,SE,146,8.0,19.0,35,0.00,,,0.00,Weather View 32 v70,2013-05-05 03:34:00,
2013-05-04 20:39:00,60.1,32.3,30.09,SE,141,6.0,19.0,35,0.00,,,0.00,Weather View 32 v70,2013-05-05 03:39:00,
2013-05-04 20:44:00,59.9,32.1,30.09,ESE,106,3.0,19.0,35,0.00,,,0.00,Weather View 32 v70,2013-05-05 03:44:00,
2013-05-04 20:49:00,59.7,32.0,30.09,ESE,112,8.0,19.0,35,0.00,,,0.00,Weather View 32 v70,2013-05-05 03:49:00,
2013-05-04 20:54:00,59.7,32.0,30.09,SE,140,9.0,16.0,35,0.00,,,0.00,Weather View 32 v70,2013-05-05 03:54:00,
2013-05-04 20:59:00,59.5,31.8,30.09,ESE,117,5.0,15.0,35,0.00,,,0.00,Weather View 32 v70,2013-05-05 03:59:00,
2013-05-04 21:01:00,59.5,31.8,30.09,ENE,60,7.0,15.0,35,0.00,,,0.00,Weather View 32 v70,2013-05-05 04:01:00,
2013-05-04 21:06:00,59.4,31.6,30.09,ESE,106,8.0,15.0,35,0.00,,,0.00,Weather View 32 v70,2013-05-05 04:06:00,
2013-05-04 21:11:00,59.2,31.5,30.09,ESE,106,6.0,15.0,35,0.00,,,0.00,Weather View 32 v70,2013-05-05 04:11:00,
2013-05-04 21:16:00,58.8,31.2,30.09,ESE,106,8.0,15.0,35,0.00,,,0.00,Weather View 32 v70,2013-05-05 04:16:00,
2013-05-04 21:21:00,58.6,31.0,30.09,SE,124,8.0,15.0,35,0.00,,,0.00,Weather View 32 v70,2013-05-05 04:21:00,
2013-05-04 21:26:00,58.5,30.9,30.09,SE,131,8.0,15.0,35,0.00,,,0.00,Weather View 32 v70,2013-05-05 04:26:00,
2013-05-04 21:31:00,58.5,30.9,30.09,ESE,123,4.0,15.0,35,0.00,,,0.00,Weather View 32 v70,2013-05-05 04:31:00,
2013-05-04 21:36:00,58.3,30.7,30.09,East,85,10.0,15.0,35,0.00,,,0.00,Weather View 32 v70,2013-05-05 04:36:00,
2013-05-04 21:41:00,58.3,30.7,30.09,SE,130,3.0,15.0,35,0.00,,,0.00,Weather View 32 v70,2013-05-05 04:41:00,
2013-05-04 21:46:00,58.1,30.5,30.09,ESE,110,8.0,15.0,35,0.00,,,0.00,Weather View 32 v70,2013-05-05 04:46:00,
2013-05-04 21:49:00,58.1,30.5,30.09,ENE,76,8.0,15.0,35,0.00,,,0.00,Weather View 32 v70,2013-05-05 04:49:00,
2013-05-04 21:54:00,57.9,30.4,30.09,ESE,108,5.0,13.0,35,0.00,,,0.00,Weather View 32 v70,2013-05-05 04:54:00,
2013-05-04 21:59:00,57.6,30.1,30.09,East,92,5.0,13.0,35,0.00,,,0.00,Weather View 32 v70,2013-05-05 04:59:00,
2013-05-04 22:04:00,57.4,29.9,30.09,ESE,111,3.0,12.0,35,0.00,,,0.00,Weather View 32 v70,2013-05-05 05:04:00,
2013-05-04 22:09:00,57.2,29.7,30.09,ENE,63,5.0,12.0,35,0.00,,,0.00,Weather View 32 v70,2013-05-05 05:09:00,
2013-05-04 22:14:00,56.8,29.4,30.09,East,87,3.0,12.0,35,0.00,,,0.00,Weather View 32 v70,2013-05-05 05:14:00,
2013-05-04 22:19:00,56.7,29.3,30.09,ESE,111,4.0,12.0,35,0.00,,,0.00,Weather View 32 v70,2013-05-05 05:19:00,
2013-05-04 22:24:00,56.3,28.9,30.09,ESE,105,3.0,12.0,35,0.00,,,0.00,Weather View 32 v70,2013-05-05 05:24:00,
2013-05-04 22:29:00,56.1,28.8,30.09,East,85,2.0,12.0,35,0.00,,,0.00,Weather View 32 v70,2013-05-05 05:29:00,
2013-05-04 22:34:00,55.9,28.6,30.09,ESE,111,4.0,11.0,35,0.00,,,0.00,Weather View 32 v70,2013-05-05 05:34:00,
2013-05-04 22:39:00,55.9,28.6,30.09,East,81,6.0,11.0,35,0.00,,,0.00,Weather View 32 v70,2013-05-05 05:39:00,
2013-05-04 22:44:00,55.6,28.3,30.09,ESE,107,5.0,11.0,35,0.00,,,0.00,Weather View 32 v70,2013-05-05 05:44:00,
2013-05-04 22:49:00,55.4,28.1,30.09,East,79,3.0,11.0,35,0.00,,,0.00,Weather View 32 v70,2013-05-05 05:49:00,
2013-05-04 22:54:00,55.0,28.5,30.09,East,79,2.0,8.0,36,0.00,,,0.00,Weather View 32 v70,2013-05-05 05:54:00,
2013-05-04 22:59:00,54.7,28.2,30.09,East,79,2.0,8.0,36,0.00,,,0.00,Weather View 32 v70,2013-05-05 05:59:00,
2013-05-04 23:04:00,54.3,27.9,30.09,East,79,0.0,8.0,36,0.00,,,0.00,Weather View 32 v70,2013-05-05 06:04:00,
2013-05-04 23:09:00,53.8,27.4,30.09,East,79,3.0,6.0,36,0.00,,,0.00,Weather View 32 v70,2013-05-05 06:09:00,
2013-05-04 23:14:00,53.1,26.8,30.09,East,79,0.0,6.0,36,0.00,,,0.00,Weather View 32 v70,2013-05-05 06:14:00,
2013-05-04 23:19:00,52.2,26.0,30.09,East,79,0.0,6.0,36,0.00,,,0.00,Weather View 32 v70,2013-05-05 06:19:00,
2013-05-04 23:24:00,51.3,25.8,30.09,East,79,0.0,6.0,37,0.00,,,0.00,Weather View 32 v70,2013-05-05 06:24:00,
2013-05-04 23:29:00,50.5,25.2,30.09,East,79,0.0,6.0,37,0.00,,,0.00,Weather View 32 v70,2013-05-05 06:29:00,
2013-05-04 23:34:00,49.8,24.5,30.09,East,79,0.0,6.0,37,0.00,,,0.00,Weather View 32 v70,2013-05-05 06:34:00,
2013-05-04 23:39:00,49.1,23.9,30.09,East,79,0.0,6.0,37,0.00,,,0.00,Weather View 32 v70,2013-05-05 06:39:00,
2013-05-04 23:44:00,48.6,23.4,30.09,East,79,0.0,5.0,37,0.00,,,0.00,Weather View 32 v70,2013-05-05 06:44:00,
2013-05-04 23:49:00,47.7,23.3,30.09,East,79,0.0,4.0,38,0.00,,,0.00,Weather View 32 v70,2013-05-05 06:49:00,
2013-05-04 23:54:00,47.1,22.8,30.09,East,79,0.0,4.0,38,0.00,,,0.00,Weather View 32 v70,2013-05-05 06:54:00,
2013-05-04 23:59:00,46.4,22.1,30.09,East,79,0.0,3.0,38,0.00,,,0.00,Weather View 32 v70,2013-05-05 06:59:00,